Tracking 29781 objects as of 16-Oct-2024
HD Live streaming from Space Station
objects crossing your sky now

STARLINK-30891

Track STARLINK-30891 now!
10-day predictions
STARLINK-30891 is classified as:


NORAD ID: 58367
Int'l Code: 2023-177S
Perigee: 565.2 km
Apogee: 567.2 km
Inclination: 43.0 °
Period: 95.8 minutes
Semi major axis: 6937 km
RCS: Unknown
Launch date: November 18, 2023
Source: United States (US)
Launch site: AIR FORCE EASTERN TEST RANGE (AFETR)
Your satellite tracking list
Your tracking list is empty




NASA's NSSDC Master Catalog

Two Line Element Set (TLE):
1 58367U 23177S   24289.59364635  .00001307  00000-0  11180-3 0  9990
2 58367  43.0055 243.3475 0001400 271.1422  88.9259 15.02539927 51336
Source of the keplerian elements: AFSPC